User: anonymous   Login
Location: Mount Graham
(32.7016°N, 109.8912°W)
Time: 10:30:53
(UTC-07:00)
Language:

Cosmos 1340 - Orbit

View from above orbital plane
View from above orbital plane
View from above satellite
View from above satellite

Ground track
Ground track

The orbit data is extracted from the following two-line orbital elements,

1 13067U 82013A   18116.10115502  .00000765  00000-0  34405-4 0  9991
2 13067  81.1842 129.3839 0003116 175.8231 184.3026 15.19922704975337
Epoch (UTC): 26 April 2018 02:25:39
Eccentricity: 0.0003116
inclination: 81.1842°
perigee height: 504 km
apogee height: 508 km
right ascension of ascending node: 129.3839°
argument of perigee: 175.8231°
revolutions per day: 15.19922704
mean anomaly at epoch: 184.3026°
orbit number at epoch: 97533

The dashed part of the orbit path shows where the satellite is in the earth's shadow,  

DLR